Location: Brede
(50.9167°N, 0.6000°E)
Time: 02:27:44
(UTC+00:00)

Meteor 2-5 Rocket - Pass Details

Date: 08 August 2020
Orbit: 832 x 912 km, 81.2° (Epoch: 19 September)

Event Time Altitude Azimuth Distance (km) Brightness Sun altitude
Rises 01:54:06 0° 346° (NNW) 3,460 7.6 -18.8°
Reaches altitude 10° 01:56:34 10° 345° (NNW) 2,507 6.8 -18.6°
Maximum altitude 02:02:14 79° 260° (W) 868 3.6 -18.2°
Enters shadow 02:05:40 24° 177° (S) 1,662 4.8 -17.9°
